カタログに戻る

THORAD AGENA D DEB

運用中PO
NORAD 4856·DEBRIS·🇺🇸 United States

打ち上げ Apr 8, 1970 から Vandenberg Space Force Base

Loading…

次のパス (今後24時間)

TLE

最新Source: Space-Track

元期: Sep 14, 2026, 01:52 UTC

1 04856U 70025EL  26257.07842887  .00000329  00000-0  19061-3 0  9997
2 04856  99.7487  28.5105 0153153  77.3499 284.4744 14.10601678882945

AllMySatでTHORAD AGENA D DEBをリアルタイム追跡

Download on the App Store